Tracking 35237 objects as of 6-Sep-2026
HD Live streaming from Space Station
objects crossing your sky now

CZ-3B R/B


CZ-3B R/B is no longer on orbit


NORAD ID: 41883
Int'l Code: 2016-077B
Launch date: December 10, 2016
Source: People's Republic of China (PRC)
Launch site: Xichang Space Center, China (XSC)
Decay date: 2019-01-20

Note: This is a ROCKET BODY
Your satellite tracking list
Your tracking list is empty




NASA's NSSDC Master Catalog

Two Line Element Set (TLE):
1 41883U 16077B   19020.48847329  .59689110 -85783-5  12729-2 0  9991
2 41883  27.9524 120.0525 0015752  20.5408  72.9093 16.45589331 57770
Source of the keplerian elements: AFSPC